This is the latest recevied weather packets stored in our database for station/object W2OBX. If no packets are shown the sender has not sent any weather packets the latest 10 day(s).
| Time | Temp. | Humidity | Pressure | Rain* | Wind** | Luminosity | Snow |
|---|---|---|---|---|---|---|---|
| 1778291291 | 14.44° C | 71% | 1013.7 hPa | 0 mm | - | 0 W/m² | - |
| 1778290988 | 14.44° C | 71% | 1013.7 hPa | 0 mm | - | 0 W/m² | - |
| 1778290685 | 15° C | 70% | 1013.6 hPa | 0 mm | - | 0 W/m² | - |
| 1778290381 | 15° C | 68% | 1013.6 hPa | 0 mm | - | 0 W/m² | - |
| 1778290077 | 15° C | 67% | 1013.4 hPa | 0 mm | - | 0 W/m² | - |
| 1778289774 | 15° C | 67% | 1013.6 hPa | 0 mm | - | 0 W/m² | - |
| 1778289472 | 15° C | 67% | 1013.5 hPa | 0 mm | - | 0 W/m² | - |
| 1778289169 | 15.56° C | 70% | 1013.6 hPa | 0 mm | - | 0 W/m² | - |
| 1778288867 | 15.56° C | 68% | 1013.7 hPa | 0 mm | - | 0 W/m² | - |
| 1778288563 | 16.11° C | 66% | 1013.7 hPa | 0 mm | - | 0 W/m² | - |
| 1778288261 | 16.11° C | 64% | 1013.6 hPa | 0 mm | - | 0 W/m² | - |
| 1778287958 | 16.11° C | 63% | 1013.4 hPa | 0 mm | - | 0 W/m² | - |
| 1778287658 | 16.67° C | 63% | 1013.4 hPa | 0 mm | - | 0 W/m² | - |
| 1778287355 | 16.67° C | 62% | 1013.4 hPa | 0 mm | - | 0 W/m² | - |
| 1778287053 | 16.67° C | 61% | 1013.3 hPa | 0 mm | - | 0 W/m² | - |
| 1778286751 | 17.22° C | 60% | 1013.5 hPa | 0 mm | - | 0 W/m² | - |
| 1778286448 | 17.22° C | 60% | 1013.2 hPa | 0 mm | - | 1 W/m² | - |
| 1778286145 | 17.78° C | 62% | 1013.3 hPa | 0 mm | - | 1 W/m² | - |
| 1778285843 | 17.78° C | 61% | 1013.3 hPa | 0 mm | - | 2 W/m² | - |
| 1778285539 | 17.78° C | 59% | 1013.3 hPa | 0 mm | - | 2 W/m² | - |
| 1778285237 | 18.33° C | 55% | 1013.2 hPa | 0 mm | - | 3 W/m² | - |
| 1778284934 | 18.33° C | 55% | 1013.6 hPa | 0 mm | - | 3 W/m² | - |
| 1778284631 | 18.89° C | 55% | 1013.3 hPa | 0 mm | - | 4 W/m² | - |
| 1778284327 | 18.89° C | 52% | 1013.4 hPa | 0 mm | - | 5 W/m² | - |
| 1778284025 | 18.89° C | 53% | 1013.3 hPa | 0 mm | - | 6 W/m² | - |
* Rain latest hour (hover to see other rain measurements)
** Current wind speed in m/s (hover to see current wind gust speed)